Location: Newark
(33.9035°S, 18.4112°E)
Time: 10:06:40
(UTC+00:00)

STARLINK-1079 - Pass Details

Date: 21 January 2020
Orbit: 349 x 351 km, 53.0° (Epoch: 22 February)

Event Time Altitude Azimuth Distance (km) Brightness Sun altitude
Exits shadow 02:50:58 24° 291° (WNW) 790 3.8 -12.6°
Maximum altitude 02:52:28 52° 223° (SW) 450 3.1 -12.3°
Drops below altitude 10° 02:55:24 10° 145° (SE) 1,336 6.8 -11.8°
Sets 02:57:27 0° 139° (SE) 2,187 8.4 -11.5°
